Torna al catalogo

CZ-6A DEB

AttivoPO
NORAD 54569·DEBRIS·🇨🇳 China

Lanciato Nov 11, 2022 da Taiyuan Satellite Launch Center

Loading…

Prossimi Passaggi (prossime 24 ore)

TLE

AggiornatoSource: Space-Track

Epoca: Sep 14, 2026, 05:42 UTC

1 54569U 22151LV  26257.23750950  .00104328  00000-0  40856-2 0  9996
2 54569  98.6212 357.9863 0026425 274.7414  85.0803 15.25037069205018

Traccia CZ-6A DEB in tempo reale con AllMySat

Download on the App Store